AirNav   Everest Fuels
 
 1144 users online  

1G5 Medina Municipal Airport
Medina, Ohio, USA

GOING TO MEDINA?


FAA INFORMATION EFFECTIVE 10 SEPTEMBER 2020

Location

FAA Identifier: 1G5
Lat/Long: 41-07-53.2000N 081-45-53.6000W
41-07.886667N 081-45.893333W
41.1314444,-81.7648889
(estimated)
Elevation: 1189.8 ft. / 362.7 m (surveyed)
Variation: 07W (1990)
From city: 4 miles E of MEDINA, OH
Time zone: UTC -4 (UTC -5 during Standard Time)
Zip code: 44256

Airport Operations

Airport use: Open to the public
Control tower: no
ARTCC: CLEVELAND CENTER
FSS: CLEVELAND FLIGHT SERVICE STATION
NOTAMs facility: CLE (NOTAM-D service available)
Attendance: 0800-DUSK
Wind indicator: lighted
Segmented circle: yes
Lights: ACTVT MIRL RWY 09/27, MIRL RWY 01/19 - CTAF. PAPI RWYS 09, 27, 01, & 19 OPER DUSK-2200; AFTER 2200 ACTVT-CTAF.
Beacon: white-green (lighted land airport)
Operates sunset to sunrise.

Airport Communications

CTAF/UNICOM: 123.0
CLEVELAND APPROACH: 125.35
CLEVELAND DEPARTURE: 125.35
WX ASOS at AKR (15 nm SE): 126.825 (330-724-4237)
WX AWOS-2 at 1G3 (16 nm E): 119.15
WX ASOS at BJJ (16 nm S): 118.075 (330-669-9105)
WX ASOS at CLE (17 nm N): 127.85 (216-267-9955)
WX ASOS at CAK (19 nm SE): PHONE 330-493-5260

Nearby radio navigation aids

VOR radial/distance  VOR name  Freq  Var
DJBr132/22.5DRYER VOR/DME113.6005W
ACOr277/25.5AKRON VOR/DME114.4004W
BSVr331/27.9BRIGGS VOR/DME112.4004W
CXRr235/35.6CHARDON VOR/DME112.7005W

 
NDB name  Hdg/Dist  Freq  Var  ID
LAKELAND216/37.326308WLQL .-.. --.- .-..

Airport Services

Fuel available: 100LL JET-A+
Parking: hangars and tiedowns
Airframe service: MAJOR
Powerplant service: MAJOR

Runway Information

Runway 9/27

Dimensions: 3556 x 75 ft. / 1084 x 23 m
Surface: asphalt, in excellent condition
Weight bearing capacity: 
Single wheel: 30.0
Runway edge lights: medium intensity
RUNWAY 9  RUNWAY 27
Latitude: 41-07.881618N41-07.946467N
Longitude: 081-46.425062W081-45.655383W
Elevation: 1168.8 ft.1182.8 ft.
Traffic pattern: leftleft
Runway heading: 091 magnetic, 084 true271 magnetic, 264 true
Markings: nonprecision, in good conditionnonprecision, in good condition
Visual slope indicator: 4-light PAPI on left (3.00 degrees glide path)
PAPI OTS INDEFLY.
4-light PAPI on left (3.50 degrees glide path)
Runway end identifier lights: yes
Touchdown point: yes, no lightsyes, no lights
Obstructions: 85 ft. trees, 1450 ft. from runway, 370 ft. right of centerline, 14:1 slope to clear55 ft. trees, 1450 ft. from runway, 45 ft. right of centerline, 22:1 slope to clear
+2-10FT BRUSH, 130FT FM, 135FT -TO- 175FT R

Runway 1/19

Dimensions: 2868 x 60 ft. / 874 x 18 m
Surface: asphalt, in poor condition
LARGE CRACKS, ROUGH RIDE QUALITY.
Weight bearing capacity: 
Single wheel: 25.0
Runway edge lights: medium intensity
Runway edge markings: RWY 19: MARKING FADED
RUNWAY 1  RUNWAY 19
Latitude: 41-07.616738N41-08.088963N
Longitude: 081-45.718333W081-45.707340W
Elevation: 1170.1 ft.1189.8 ft.
Traffic pattern: leftleft
Runway heading: 008 magnetic, 001 true188 magnetic, 181 true
Displaced threshold: no737 ft.
RWY 19 APCH RATIO 26:1 TO DSPLCD THLD DUE TO +74 FT TREES 1940 FT FM DSPLCD THLD.
Markings: basic, in fair conditionbasic, in poor condition
Visual slope indicator: 4-light PAPI on left (3.00 degrees glide path)4-light PAPI on left (4.00 degrees glide path)
Touchdown point: yes, no lightsyes, no lights
Obstructions: 15 ft. pline, marked, 450 ft. from runway, 16:1 slope to clear
OBST CLN SLOPE 20:1 TO DSPLCD THLD DUE TO +60FT TREE 650FT FM RWY 19.
60 ft. trees, 650 ft. from runway, 195 ft. left of centerline, 7:1 slope to clear

Airport Ownership and Management from official FAA records

Ownership: Publicly-owned
Owner: CITY OF MEDINA
P O BOX 703
MEDINA, OH 44258
Phone 330-725-8861
Manager: GREG HUBER
P O BOX 703
MEDINA, OH 44258
Phone 330-239-1606

Airport Operational Statistics

Aircraft based on the field: 47
Single engine airplanes: 42
Multi engine airplanes: 3
Helicopters: 2
    
Aircraft operations: avg 218/day *
69% local general aviation
29% transient general aviation
2% air taxi
<1% military
* for 12-month period ending 08 September 2017

Additional Remarks

DEER, BIRDS AND OTHER WILDLIFE ON & INVOF ARPT
FOR CD CTC CLEVELAND APCH AT 216-352-2323.

Instrument Procedures

NOTE: All procedures below are presented as PDF files. If you need a reader for these files, you should download the free Adobe Reader.

NOT FOR NAVIGATION. Please procure official charts for flight.
FAA instrument procedures published for use from 10 September 2020 at 0901Z to 08 October 2020 at 0900z.

 
IAPs - Instrument Approach Procedures
RNAV (GPS) RWY 09   download (171KB)
RNAV (GPS) RWY 27   download (172KB)
VOR RWY 27   download (209KB)
NOTE: Special Take-Off Minimums/Departure Procedures apply   download (164KB)

Other nearby airports with instrument procedures:

3G3 - Wadsworth Municipal Airport (8 nm S)
KAKR - Akron Fulton International Airport (15 nm SE)
1G3 - Kent State University Airport (16 nm E)
KBJJ - Wayne County Airport (16 nm S)
KCLE - Cleveland-Hopkins International Airport (17 nm N)
1G1 - Elyria Airport (19 nm NW)
KCAK - Akron-Canton Regional Airport (19 nm SE)
 
Loc | Ops | Rwys | IFR | FBO | Links
Com | Nav | Svcs | Stats | Notes
Area around 1G5 (Medina Municipal Airport)
 
Road maps at: MapQuest Bing Google
 
Aerial photo
WARNING: Photo may not be current or correct
Aerial photo of 1G5 (Medina Municipal Airport)
Do you have a better or more recent aerial photo of Medina Municipal Airport that you would like to share? If so, please send us your photo.

 
Sectional chart

 
Airport distance calculator
Flying to Medina Municipal Airport? Find the distance to fly.

From to 1G5

Sunrise and sunset
Times for 30-Sep-2020
 Local
(UTC-4)
 Zulu
(UTC)
Morning civil twilight06:5710:57
Sunrise07:2511:25
Sunset19:0923:09
Evening civil twilight19:3623:36

Current date and time
Zulu (UTC)  01-Oct-2020 01:02:32
Local (UTC-4)  30-Sep-2020 21:02:32
 
METAR
KAKR 
15nm SE 
010054Z AUTO 23008KT 10SM FEW055 14/09 A2976 RMK AO2 SLP077 T01440094
KBJJ 
17nm S 
010056Z AUTO 24006KT 10SM CLR 11/09 A2978 RMK AO2 SLP088 T01110094
KCLE 
18nm N 
010051Z 26016G22KT 10SM -RA FEW048 BKN065 OVC080 13/09 A2975 RMK AO2 PK WND 28026/2359 RAB34 SLP090 P0000 T01280094
KCAK 
19nm SE 
010051Z 25006KT 10SM FEW060 SCT100 13/09 A2977 RMK AO2 SLP083 T01280094
KLPR 
23nm NW 
010053Z AUTO 27009G20KT 7SM -RA OVC055 12/08 A2978 RMK AO2 RAB13 SLP086 P0002 T01220078
KPOV 
24nm E 
010055Z AUTO 00000KT 10SM CLR 12/08 A2976 RMK AO2 T01240083 PWINO
KBKL 
25nm N 
010053Z 25018G23KT 10SM BKN060 14/10 A2974 RMK AO2 RAB28E33 SLP076 P0000 T01440100 $
KCGF 
29nm NE 
010045Z 25010KT 10SM SCT020 BKN055 OVC070 12/11 A2975
TAF
KCLE 
18nm N 
302042Z 3021/0124 22015G25KT P6SM BKN100 FM010200 25015G25KT P6SM BKN100 FM010500 25011KT P6SM BKN060 FM011600 23012G20KT P6SM VCSH BKN050
KCAK 
19nm SE 
301733Z 3018/0118 23020G30KT P6SM BKN035 FM010200 25012G20KT P6SM BKN100 FM010500 25011KT P6SM BKN060
NOTAMs
Click for the latest NOTAMs
NOTAMs are issued by the DoD/FAA and will open in a separate window not controlled by AirNav.

 

 
 

FBO, Fuel Providers, and Aircraft Ground Support

  
 Business Name 
 
 Contact 
 
 Services / Description 
 
Fuel Prices
 
Comments
  
Flight Services of Medina 330-239-1606
[web site]
Aviation fuel, Aircraft parking (ramp or tiedown), Flight training, Aircraft rental, Aerial tours / aerial sightseeing, Aerial photography, Aircraft maintenance, ...

More info about Flight Services of Medina
EPIC
100LL Jet A
AS --- $3.95 
SS $4.50 --- 
 Updated 21-Sep-2020
 
   1 read write
AS=Assisted/Self Service
SS=Self service
Update Fuel Prices
 

Would you like to see your business listed on this page?

 If your business provides an interesting product or service to pilots, flight crews, aircraft, or users of the Medina Municipal Airport, you should consider listing it here.  To start the listing process, click on the button below
 
Add a business
 

Other Pages about Medina Municipal Airport

www.medinaoh.org/...
 
Update a link
 
Copyright © AirNav, LLC. All rights reserved. Privacy Policy  Contact